FW4213 Weather Reports


time (UTC)temp
F
wind
direction
speed
knots
gust
knots
rain 1hr
in
rain 24hr
in
rain mn
in
humidity
%
barometer
mb
20260510220034 73 269 2.6 8.7 0.00 0.00 0.00 45 1019.3
20260510214530 72 242 4.3 10.4 0.00 0.00 0.00 45 1019.3
20260510213036 71 243 4.3 12.2 0.00 0.00 0.00 46 1019.4
20260510210033 69 239 4.3 10.4 0.00 0.00 0.00 52 1018.9
20260510201611 74 258 3.5 8.7 0.00 0.00 0.00 47 1018.4
20260510200031 74 256 3.5 8.7 0.00 0.00 0.00 50 1018.4
20260510194532 71 255 2.6 8.7 0.00 0.00 0.00 56 1018.4
20260510193110 67 302 4.3 12.2 0.00 0.00 0.00 62 1018.4
20260510191530 64 320 5.2 13.0 0.00 0.00 0.00 67 1018.5
20260510190031 63 313 5.2 13.9 0.00 0.00 0.00 70 1018.6
20260510183037 63 303 3.5 13.0 0.00 0.00 0.00 69 1018.7
20260510181532 63 279 2.6 8.7 0.00 0.00 0.00 71 1018.7
20260510180034 62 285 2.6 9.6 0.00 0.00 0.00 72 1018.6
20260510173039 61 284 1.7 6.1 0.00 0.00 0.00 73 1018.6
20260510170029 61 296 1.7 8.7 0.00 0.00 0.00 73 1018.6
20260510164609 61 301 0.9 6.1 0.00 0.00 0.00 74 1018.8
20260510163036 58 260 0.9 5.2 0.00 0.00 0.00 79 1018.8
20260510154532 57 276 0.9 4.3 0.00 0.00 0.00 81 1018.5
20260510151610 56 316 0.0 2.6 0.00 0.00 0.00 81 1018.6
20260510144652 54 121 0.0 3.5 0.00 0.00 0.00 80 1018.3
20260510143037 52 154 0.9 3.5 0.00 0.00 0.00 82 1018.2
20260510141532 51 166 0.0 1.7 0.00 0.00 0.00 82 1018.2
20260510140031 49 138 1.7 6.1 0.00 0.00 0.00 83 1018.3
20260510134532 48 139 0.9 3.5 0.00 0.00 0.00 84 1018.3
20260510133032 47 128 1.7 3.5 0.00 0.00 0.00 81 1018.1
20260510130032 47 136 2.6 6.1 0.00 0.00 0.00 81 1018.1
20260510124531 47 122 0.9 3.5 0.00 0.00 0.00 79 1018.2
20260510123112 46 138 3.5 6.1 0.00 0.00 0.00 79 1018.3
20260510121530 46 152 2.6 4.3 0.00 0.00 0.00 81 1018.2
20260510120032 47 136 1.7 3.5 0.00 0.00 0.00 78 1018.1
20260510113032 48 149 2.6 4.3 0.00 0.00 0.00 73 1017.9
20260510111535 48 153 2.6 4.3 0.00 0.00 0.00 72 1017.8
20260510110152 49 145 3.5 5.2 0.00 0.00 0.00 71 1017.8
20260510104533 49 150 2.6 6.1 0.00 0.00 0.00 70 1018.0
20260510103108 50 143 3.5 7.8 0.00 0.00 0.00 70 1018.0
20260510101534 49 143 2.6 6.1 0.00 0.00 0.00 70 1017.9
20260510100034 50 139 3.5 6.1 0.00 0.00 0.00 68 1017.8
20260510094532 51 143 0.0 3.5 0.00 0.00 0.00 66 1017.8
20260510090035 53 139 4.3 7.8 0.00 0.00 0.00 60 1017.9
20260510084643 54 145 3.5 6.1 0.00 0.00 0.00 59 1018.1
20260510081530 55 150 4.3 7.8 0.00 0.00 0.00 56 1018.2
20260510080033 55 145 4.3 7.8 0.00 0.00 0.00 55 1018.2
20260510074538 56 145 4.3 8.7 0.00 0.00 0.00 55 1018.3
20260510073031 56 143 4.3 7.8 0.00 0.00 0.00 54 1018.3
20260510071532 57 145 4.3 7.8 0.00 0.00 0.00 53 1018.3
20260510070034 57 147 5.2 7.8 0.00 0.00 0.00 53 1018.2
20260510064533 57 146 4.3 7.8 0.00 0.00 0.00 53 1018.1
20260510063037 58 146 3.5 6.1 0.00 0.00 0.00 51 1018.0
20260510061610 59 152 3.5 7.0 0.00 0.00 0.00 50 1017.9
20260510060034 59 146 4.3 7.8 0.00 0.00 0.00 50 1017.8
20260510051534 58 131 2.6 7.0 0.00 0.00 0.00 56 1017.6
20260510050031 59 120 0.9 5.2 0.00 0.00 0.00 55 1017.5
20260510043109 62 124 1.7 5.2 0.00 0.00 0.00 51 1017.4
20260510041531 63 141 2.6 6.1 0.00 0.00 0.00 50 1017.1
20260510040032 64 144 2.6 5.2 0.00 0.00 0.00 49 1016.9
20260510034532 66 129 2.6 6.1 0.00 0.00 0.00 48 1016.7
20260510031531 68 148 4.3 8.7 0.00 0.00 0.00 48 1016.6
20260510030029 67 145 4.3 7.8 0.00 0.00 0.00 50 1016.6
20260510021532 74 101 0.9 2.6 0.00 0.00 0.00 53 1016.5
20260510013108 77 337 0.0 0.9 0.00 0.00 0.00 47 1016.7
20260510010056 79 337 0.0 1.7 0.00 0.00 0.00 33 1016.9
20260510001610 80 9 0.9 5.2 0.00 0.00 0.00 29 1017.3
20260509234529 81 355 1.7 5.2 0.00 0.00 0.00 28 1017.5
20260509233031 81 4 2.6 6.1 0.00 0.00 0.00 27 1017.7
20260509231643 80 348 2.6 6.1 0.00 0.00 0.00 27 1017.9
20260509230029 80 334 2.6 6.1 0.00 0.00 0.00 29 1018.3
20260509223031 79 18 0.9 4.3 0.00 0.00 0.00 31 1018.8
20260509221532 79 344 2.6 5.2 0.00 0.00 0.00 31 1019.0